Location: Cheyres
(46.8153°N, 6.7877°E)
Time: 12:19:52
(UTC+00:00)

Cosmos 2082 Rocket - Pass Details

Date: 11 May 2021
Orbit: 834 x 853 km, 71.0° (Epoch: 19 June)

Event Time Altitude Azimuth Distance (km) Brightness Sun altitude
Rises 19:52:12 0° 338° (NNW) 3,393 6.5 -8.8°
Reaches altitude 10° 19:55:05 10° 352° (N) 2,455 5.4 -9.2°
Maximum altitude 19:59:44 26° 48° (NE) 1,605 3.6 -9.8°
Drops below altitude 10° 20:04:21 10° 103° (ESE) 2,449 4.1 -10.4°
Enters shadow 20:04:25 10° 104° (ESE) 2,468 4.1 -10.4°
